Theta_e
310 311 310 309 309 308 308 308 307 306 304 303 302 301 300 300 299 299 299 299 299 300 301 301 301 302 302 304 306 307 308 311 310 312 314 317 318 319 320 322 320 321 321
306 306 306 306 306 306 306 305 304 302 301 300 299 298 297 297 297 297 296 297 296 297 298 298 297 297 298 299 300 301 303 305 307 305 308 309 311 314 317 318 317 318 320
304 303 303 303 304 304 303 302 300 299 298 297 297 296 296 296 295 296 295 295 295 295 296 295 296 296 296 298 298 298 299 300 303 304 303 307 307 308 308 311 312 313 314
302 302 302 302 302 302 301 299 298 298 296 296 296 295 295 294 294 294 294 294 294 295 295 295 295 295 295 296 296 297 297 298 300 299 299 300 302 304 306 304 303 308 309
302 301 300 301 300 298 297 297 297 296 295 295 294 293 293 293 292 293 294 294 294 293 294 294 295 293 289 292 293 294 295 295 297 297 297 298 298 297 298 302 301 304 304
301 299 299 297 296 295 295 295 294 294 293 293 292 292 292 291 291 291 291 292 292 292 292 293 294 290 291 290 290 291 292 292 293 294 294 294 295 296 298 299 299 297 295
299 299 296 294 293 293 293 292 292 291 291 290 291 291 291 291 291 291 290 291 291 292 292 292 292 291 290 292 292 292 291 292 293 294 292 293 294 296 297 296 296 296 296
298 298 295 292 292 292 291 290 290 290 289 289 290 290 290 290 290 290 289 290 291 292 292 292 292 292 293 292 291 291 292 293 294 294 294 294 296 297 298 297 297 295 294
294 295 293 292 290 289 289 289 288 288 287 287 287 287 287 288 289 289 289 289 289 290 290 291 291 291 290 290 290 289 289 290 292 292 292 293 293 293 294 292 289 288 287
284 285 286 287 288 287 286 285 285 285 284 284 284 285 285 286 287 287 288 288 287 288 288 288 287 287 288 289 289 288 287 288 289 289 290 291 292 290 290 290 289 286 286
279 280 279 280 281 281 281 281 281 281 281 282 282 283 284 284 285 286 287 287 287 286 286 287 288 288 289 289 289 289 288 289 288 288 287 288 289 289 289 290 289 288 286
276 276 276 276 278 277 277 278 278 279 279 279 280 280 282 283 283 283 284 284 285 284 284 286 287 287 288 288 288 289 289 289 287 286 285 285 286 287 289 290 290 290 291
273 272 273 273 274 274 275 275 277 277 277 277 277 278 278 279 280 280 281 281 282 282 282 282 284 283 284 284 285 286 284 285 284 283 283 284 286 288 289 289 289 289 288
270 271 272 271 272 273 274 274 274 274 275 275 275 275 276 277 278 279 279 280 280 280 280 281 281 282 282 282 282 283 284 284 284 283 283 284 285 285 285 287 286 286 286
269 269 270 271 270 271 271 272 272 273 273 273 274 274 274 274 275 277 277 277 278 279 278 278 278 278 278 279 280 281 282 283 283 284 284 284 284 284 285 286 286 286 284
268 268 268 269 269 269 269 270 271 271 272 273 274 274 274 275 276 276 277 277 277 278 275 274 275 275 275 276 277 278 279 280 281 282 283 283 283 283 284 285 285 285 284
265 266 267 267 267 267 267 267 267 269 270 271 271 272 272 273 274 274 274 275 275 275 272 272 272 272 272 273 274 275 275 278 279 279 280 280 281 281 282 283 284 285 285
263 263 265 265 266 266 266 266 266 265 265 266 269 270 271 271 271 272 273 273 269 270 269 268 268 269 270 270 271 271 272 274 275 276 276 278 279 280 280 281 283 284 285
264 265 264 265 265 264 265 265 265 265 265 265 266 267 268 269 270 272 272 269 267 267 268 268 269 269 269 270 270 271 271 272 273 273 274 275 277 278 279 281 284 284 284
263 263 262 264 264 264 264 264 264 264 264 264 264 265 265 267 267 266 266 266 266 266 267 267 268 268 268 269 269 269 270 270 271 272 273 274 276 277 278 280 282 282 285
264 264 261 264 264 263 263 263 263 263 263 263 264 265 269 267 264 264 264 265 264 265 265 266 266 266 267 268 269 269 269 270 270 271 272 273 274 275 277 279 280 283 284
263 263 263 262 263 263 262 262 262 262 263 263 263 264 267 264 264 264 264 264 265 265 265 265 265 265 266 266 267 267 268 268 270 271 271 272 273 275 277 278 280 282 279
263 262 262 262 262 261 262 262 262 262 263 263 263 263 263 264 264 264 264 264 265 265 265 265 265 265 266 266 267 267 267 267 269 270 271 272 273 274 276 279 280 276 274
262 261 261 261 261 261 261 262 262 261 262 262 263 263 263 263 264 264 264 265 265 265 265 265 266 266 267 267 268 268 268 269 270 270 270 271 271 273 274 276 278 275 273
261 261 261 261 260 261 261 261 261 262 262 262 263 263 263 263 263 264 264 265 265 265 266 267 268 269 268 268 268 269 271 271 271 271 271 271 271 273 275 278 275 272 271
260 260 260 260 260 260 260 260 261 261 261 262 262 263 263 263 263 264 264 264 265 265 267 268 269 269 269 269 270 271 273 274 277 276 275 273 272 273 276 273 272 270 269
Wind_Speed
6 7 8 8 9 9 8 9 9 9 8 8 7 6 5 4 3 2 2 3 4 5 6 7 9 9 8 8 8 9 10 10 13 18 12 11 14 14 12 12 12 13 12
6 6 7 8 8 9 9 8 8 8 7 7 7 6 5 5 3 3 3 3 5 6 7 8 9 7 11 10 9 11 10 11 11 20 14 12 13 13 13 14 11 11 12
7 7 8 9 9 9 9 8 8 7 7 6 6 6 4 4 3 2 3 4 5 7 8 9 11 10 11 9 10 10 10 10 10 12 17 11 11 11 13 12 12 13 11
8 9 10 10 10 9 9 9 8 8 8 7 5 3 3 2 3 3 4 6 7 8 9 10 11 11 12 12 10 11 11 10 10 11 13 12 10 9 9 10 12 9 11
11 11 12 9 9 8 8 8 7 7 6 6 5 4 3 3 2 4 6 8 9 10 10 11 11 11 12 13 10 11 12 10 9 10 12 12 10 9 9 8 12 12 12
12 13 9 8 8 7 7 7 7 6 6 5 5 4 5 3 6 8 8 9 11 11 12 12 12 9 12 16 19 22 18 14 14 11 12 13 16 11 9 9 11 11 11
11 10 8 9 9 8 6 6 6 7 5 4 4 5 6 6 6 9 10 9 11 13 13 12 11 8 9 13 15 18 21 23 24 16 17 16 18 12 12 12 12 12 14
11 10 7 8 8 7 7 6 5 3 4 3 4 6 7 6 7 10 12 12 13 15 14 14 14 14 12 11 14 15 15 14 14 13 17 18 17 13 13 12 13 15 16
3 3 4 6 7 6 5 4 2 1 2 3 4 6 7 7 8 12 13 12 13 15 14 14 14 16 15 14 15 16 16 14 13 21 26 28 27 25 19 12 11 11 17
8 7 8 7 6 7 6 4 2 1 4 4 5 6 7 10 12 15 14 9 13 11 13 14 14 15 19 18 15 14 18 14 12 13 13 16 19 19 21 15 12 13 13
7 7 9 8 8 7 5 3 2 3 4 6 7 6 7 8 10 13 15 10 10 11 11 11 10 16 18 18 20 15 18 16 18 16 16 14 15 14 12 12 14 14 13
6 8 8 7 6 5 5 4 4 4 5 6 7 7 5 4 6 9 14 17 18 13 14 12 13 20 23 25 22 25 27 24 14 15 15 15 15 13 12 12 13 14 15
6 6 7 6 6 6 5 4 4 5 5 6 7 8 8 7 7 13 15 17 18 13 12 20 32 32 31 25 26 26 23 13 13 14 16 15 13 11 11 9 10 14 15
5 6 5 5 5 5 4 4 3 4 5 6 7 8 8 8 8 8 9 10 15 15 19 16 22 28 31 27 20 17 12 13 13 14 15 14 14 13 12 10 11 10 12
4 4 5 4 5 4 4 3 4 4 5 7 8 9 10 10 10 18 18 12 12 16 21 14 14 13 15 13 13 13 13 12 14 13 15 14 14 13 13 11 12 11 13
4 4 4 4 4 4 4 4 4 6 9 11 13 12 9 19 23 25 25 26 27 28 15 14 14 13 14 14 14 13 12 14 13 14 14 14 14 13 14 12 10 11 13
5 5 4 4 4 4 4 4 6 6 9 8 12 15 17 20 24 25 26 28 27 24 12 13 14 13 14 14 13 14 14 13 14 14 15 15 15 15 17 14 11 12 13
4 3 3 2 3 3 3 4 4 5 8 9 10 14 16 21 23 25 26 25 13 11 11 13 13 13 13 14 14 14 14 13 13 14 15 15 14 15 15 15 15 15 13
2 2 3 2 2 3 3 4 4 6 6 8 9 12 14 22 23 23 23 10 13 12 12 13 13 14 14 14 14 14 16 14 14 14 15 15 14 15 16 16 14 14 15
1 2 3 3 3 3 3 4 5 6 7 7 8 9 9 11 10 11 9 10 11 12 12 14 14 15 15 15 15 15 15 15 15 14 14 14 14 15 16 16 15 14 12
2 2 3 3 3 4 4 5 5 6 6 7 9 9 19 11 10 10 10 10 11 12 13 14 14 15 15 16 16 16 16 16 15 15 14 15 15 15 15 15 16 16 14
3 3 4 4 4 4 4 5 6 6 7 8 9 10 19 8 9 10 11 11 11 12 12 14 14 14 15 15 16 17 17 18 17 16 16 15 16 16 16 14 16 16 8
3 4 4 3 4 5 5 5 5 6 8 9 9 9 9 9 9 11 12 12 12 13 12 13 14 15 15 15 15 16 17 17 17 16 16 16 15 16 16 11 13 7 9
4 4 4 4 4 5 5 6 6 7 8 9 10 9 9 10 10 12 12 12 13 13 13 13 14 20 18 17 15 16 16 17 16 17 22 18 17 18 15 15 13 8 9
4 4 4 4 4 4 5 6 6 7 8 8 9 9 9 10 11 12 12 12 13 14 16 16 14 18 21 25 25 26 25 28 25 26 17 19 20 21 16 13 9 10 13
4 5 4 4 4 4 5 6 7 7 7 8 9 9 9 10 11 12 12 13 13 15 18 15 18 24 25 20 22 26 27 26 22 23 18 17 16 15 11 10 15 11 14
Wind_Direction
172 169 168 166 164 164 171 171 170 162 165 168 165 164 165 167 167 197 231 260 281 285 285 286 290 293 288 290 289 287 284 282 281 289 288 301 300 299 295 290 285 283 282
182 182 181 170 170 175 179 177 168 169 166 164 167 171 172 172 175 214 257 277 290 292 292 289 288 292 286 287 285 282 280 281 280 284 295 298 291 298 296 297 293 286 284
192 193 191 191 188 189 185 174 175 167 170 173 181 181 176 179 203 244 289 286 284 283 286 286 287 288 285 285 283 283 282 282 279 281 288 294 296 299 293 286 289 288 282
204 207 209 208 200 195 188 184 182 182 178 180 181 179 205 243 270 278 284 284 281 279 281 278 281 279 279 283 284 283 283 282 280 277 280 286 285 291 290 296 291 283 291
210 213 219 207 207 196 187 186 184 187 189 175 179 203 229 252 281 294 290 287 286 287 282 276 271 273 275 270 276 277 278 277 272 273 276 284 284 289 281 292 291 299 291
211 215 212 197 198 196 187 178 181 186 194 198 208 213 235 237 240 253 267 289 289 283 282 280 278 262 259 250 250 252 252 267 267 269 273 273 280 281 283 283 287 296 307
217 219 204 195 196 193 177 178 185 195 194 211 236 259 267 274 260 266 266 275 277 274 274 278 281 268 253 267 267 258 253 248 249 263 268 262 277 280 284 284 279 277 272
221 221 207 193 192 172 171 183 178 188 210 241 268 279 287 289 276 275 272 275 271 267 268 270 271 276 270 268 274 275 268 262 250 245 253 268 269 279 273 280 290 293 284
298 248 195 187 168 154 158 165 137 237 284 283 285 290 285 292 283 268 267 270 265 268 269 267 265 272 273 262 267 274 274 269 259 247 251 261 268 273 270 280 270 276 284
40 49 56 64 95 112 110 114 91 336 291 294 285 277 273 275 269 267 266 266 269 274 276 276 260 259 266 262 261 267 273 279 279 275 270 264 262 264 256 250 262 261 267
46 56 55 49 66 62 64 52 9 311 293 289 284 285 273 265 271 268 271 272 275 283 284 289 285 284 282 272 262 265 269 285 281 279 278 274 271 263 252 242 238 244 253
45 56 55 53 51 43 38 19 353 333 314 307 305 300 289 294 300 308 303 296 298 293 290 293 295 300 301 296 290 281 281 283 279 277 276 273 271 265 258 244 235 240 244
44 56 52 44 33 30 33 24 355 341 327 320 319 318 321 324 313 304 302 305 305 299 294 293 296 295 293 290 284 282 284 272 268 266 270 271 270 271 267 255 243 246 248
47 51 46 48 29 36 20 14 4 347 332 328 320 314 312 311 311 316 315 307 301 299 297 291 291 293 290 283 286 277 266 265 262 263 265 269 272 269 264 257 255 251 255
53 37 33 35 35 33 36 14 358 334 328 321 317 316 316 313 312 309 311 306 302 299 304 296 294 294 291 286 282 281 280 272 267 266 266 268 266 265 260 252 251 250 246
57 42 33 19 22 22 11 1 351 323 323 313 312 315 311 305 312 312 312 309 307 307 298 294 293 292 286 288 286 284 278 277 274 272 270 271 272 272 268 256 245 242 248
28 23 23 13 9 9 3 357 335 331 323 313 322 321 317 314 319 319 317 313 310 308 291 290 289 289 288 287 285 284 284 281 282 276 274 272 271 271 274 266 257 252 248
1 357 359 1 348 350 341 333 324 328 331 326 328 327 325 327 324 323 319 316 309 297 289 287 286 286 285 285 284 283 282 281 277 276 275 276 273 269 266 265 261 253 249
323 329 321 320 338 335 330 331 329 330 327 321 323 326 332 325 318 315 322 312 304 300 297 290 287 286 285 284 283 281 280 278 276 275 274 277 278 270 269 265 257 253 252
241 309 292 318 338 344 334 332 338 333 326 322 321 320 322 310 322 320 314 304 296 295 296 291 289 285 283 281 279 278 278 276 275 273 272 269 267 265 276 265 257 261 248
282 297 326 313 343 354 342 333 326 317 315 317 309 309 316 325 313 305 304 300 298 295 294 292 291 289 288 288 288 282 275 273 271 271 270 270 269 267 266 265 266 264 251
328 325 335 336 333 331 327 312 311 311 315 311 309 307 317 310 305 304 304 301 297 293 290 290 288 286 285 283 283 281 279 279 278 271 265 264 265 266 264 258 271 256 173
313 316 313 314 311 308 304 310 311 312 313 311 309 308 313 311 306 302 301 301 299 295 293 290 287 285 280 277 274 274 274 272 270 270 270 271 267 261 252 266 283 172 161
290 289 289 291 299 306 302 309 312 305 303 309 313 313 306 304 302 302 302 301 299 297 296 292 288 286 286 280 276 271 267 265 263 260 260 259 258 263 267 268 262 183 158
269 271 274 282 288 295 302 303 304 308 306 307 308 305 303 304 305 305 305 304 303 303 304 302 298 299 298 297 292 288 281 273 261 255 255 251 250 253 253 252 168 151 146
263 263 269 274 277 285 290 295 297 301 304 308 309 306 304 305 304 305 306 305 309 310 310 311 308 309 308 304 301 299 300 302 292 265 245 234 232 237 228 158 146 142 141